2023/09/07 00:00:00,62.0,20.4
2023/09/07 00:10:00,62.1,20.4
2023/09/07 00:20:00,62.2,20.4
2023/09/07 00:30:00,62.4,20.4
2023/09/07 00:40:00,62.4,20.3
2023/09/07 00:50:00,62.4,20.3
2023/09/07 01:00:00,62.3,20.4
2023/09/07 01:10:00,62.4,20.3
2023/09/07 01:20:00,62.3,20.2
2023/09/07 01:30:00,62.4,20.4
2023/09/07 01:40:00,62.4,20.1
2023/09/07 01:50:00,62.4,20.0
2023/09/07 02:00:00,62.4,20.1
2023/09/07 02:10:00,62.4,20.0
2023/09/07 02:20:00,62.4,19.7
2023/09/07 02:30:00,62.4,19.7
2023/09/07 02:40:00,62.4,19.5
2023/09/07 02:50:00,62.4,19.4
2023/09/07 03:00:00,62.4,19.1
2023/09/07 03:10:00,62.3,19.1
2023/09/07 03:20:00,62.2,18.9
2023/09/07 03:30:00,62.3,18.5
2023/09/07 03:40:00,62.3,18.5
2023/09/07 03:50:00,62.2,18.7
2023/09/07 04:00:00,62.2,18.7
2023/09/07 04:10:00,62.3,18.7
2023/09/07 04:20:00,62.2,18.5
2023/09/07 04:30:00,62.1,18.6
2023/09/07 04:40:00,62.0,18.8
2023/09/07 04:50:00,62.0,18.9
2023/09/07 05:00:00,62.0,18.9
2023/09/07 05:10:00,61.9,18.7
2023/09/07 05:20:00,61.9,18.7
2023/09/07 05:30:00,61.8,18.6
2023/09/07 05:40:00,61.8,18.5
2023/09/07 05:50:00,61.7,18.7
2023/09/07 06:00:00,61.6,18.5
2023/09/07 06:10:00,61.6,18.6
2023/09/07 06:20:00,61.6,18.8
2023/09/07 06:30:00,61.6,19.0
2023/09/07 06:40:00,61.5,19.0
2023/09/07 06:50:00,61.6,18.9
2023/09/07 07:00:00,61.5,18.9
2023/09/07 07:10:00,61.5,19.0
2023/09/07 07:20:00,61.4,19.1
2023/09/07 07:30:00,61.4,19.3
2023/09/07 07:40:00,61.5,19.5
2023/09/07 07:50:00,61.7,19.8
2023/09/07 08:00:00,61.8,19.9
2023/09/07 08:10:00,61.7,20.1
2023/09/07 08:20:00,61.7,20.4
2023/09/07 08:30:00,61.8,20.8
2023/09/07 08:40:00,61.6,21.2
2023/09/07 08:50:00,61.5,21.4
2023/09/07 09:00:00,61.5,21.5
2023/09/07 09:10:00,61.6,21.8
2023/09/07 09:20:00,61.7,22.4
2023/09/07 09:30:00,61.7,22.8
2023/09/07 09:40:00,61.4,23.3
2023/09/07 09:50:00,61.4,22.3
2023/09/07 10:00:00,61.7,22.0
2023/09/07 10:10:00,---,21.7
2023/09/07 10:20:00,62.0,22.6
2023/09/07 10:30:00,62.2,23.2
2023/09/07 10:40:00,62.0,22.6
2023/09/07 10:50:00,62.1,22.3
2023/09/07 11:00:00,61.8,22.4
2023/09/07 11:10:00,61.9,21.8
2023/09/07 11:20:00,62.3,22.1
2023/09/07 11:30:00,62.1,22.0
2023/09/07 11:40:00,62.2,21.8
2023/09/07 11:50:00,62.3,22.4
2023/09/07 12:00:00,62.0,22.4
2023/09/07 12:10:00,61.7,23.1
2023/09/07 12:20:00,61.4,22.6
2023/09/07 12:30:00,61.2,23.5
2023/09/07 12:40:00,61.2,23.2
2023/09/07 12:50:00,61.4,23.8
2023/09/07 13:00:00,61.1,23.8
2023/09/07 13:10:00,61.9,23.7
2023/09/07 13:20:00,60.9,23.6
2023/09/07 13:30:00,61.2,24.6
2023/09/07 13:40:00,61.4,23.7
2023/09/07 13:50:00,61.2,23.3
2023/09/07 14:00:00,61.3,23.3
2023/09/07 14:10:00,61.8,23.2
2023/09/07 14:20:00,---,23.1
2023/09/07 14:30:00,49.1,23.1
2023/09/07 14:40:00,61.5,23.0
2023/09/07 14:50:00,61.4,24.0
2023/09/07 15:00:00,59.8,24.0
2023/09/07 15:10:00,58.8,23.5
2023/09/07 15:20:00,59.5,23.4
2023/09/07 15:30:00,60.1,23.6
2023/09/07 15:40:00,60.4,23.4
2023/09/07 15:50:00,60.8,22.6
2023/09/07 16:00:00,61.4,22.3
2023/09/07 16:10:00,61.8,22.3
2023/09/07 16:20:00,61.6,22.1
2023/09/07 16:30:00,62.3,21.9
2023/09/07 16:40:00,31.9,22.0
2023/09/07 16:50:00,40.9,22.0
2023/09/07 17:00:00,35.2,21.8
2023/09/07 17:10:00,27.1,21.8
2023/09/07 17:20:00,27.0,21.3
2023/09/07 17:30:00,26.7,21.6
2023/09/07 17:40:00,27.1,21.0
2023/09/07 17:50:00,27.2,21.1
2023/09/07 18:00:00,27.2,20.7
2023/09/07 18:10:00,27.0,20.7
2023/09/07 18:20:00,27.1,20.2
2023/09/07 18:30:00,27.1,20.3
2023/09/07 18:40:00,27.2,19.9
2023/09/07 18:50:00,27.2,19.7
2023/09/07 19:00:00,27.2,19.4
2023/09/07 19:10:00,27.3,19.5
2023/09/07 19:20:00,27.2,19.1
2023/09/07 19:30:00,27.2,19.0
2023/09/07 19:40:00,27.1,18.5
2023/09/07 19:50:00,27.1,18.6
2023/09/07 20:00:00,27.2,18.5
2023/09/07 20:10:00,27.2,18.6
2023/09/07 20:20:00,27.3,18.7
2023/09/07 20:30:00,27.4,18.7
2023/09/07 20:40:00,27.4,18.8
2023/09/07 20:50:00,27.4,18.8
2023/09/07 21:00:00,27.4,18.7
2023/09/07 21:10:00,27.3,18.4
2023/09/07 21:20:00,27.2,18.2
2023/09/07 21:30:00,27.2,18.1
2023/09/07 21:40:00,27.1,18.1
2023/09/07 21:50:00,27.1,18.1
2023/09/07 22:00:00,27.2,18.1
2023/09/07 22:10:00,27.2,18.5
2023/09/07 22:20:00,27.3,18.5
2023/09/07 22:30:00,27.3,18.7
2023/09/07 22:40:00,27.3,18.5
2023/09/07 22:50:00,27.4,18.7
2023/09/07 23:00:00,27.4,18.7
2023/09/07 23:10:00,27.4,18.9
2023/09/07 23:20:00,27.4,19.0
2023/09/07 23:30:00,27.4,19.1
2023/09/07 23:40:00,27.4,19.2
2023/09/07 23:50:00,27.4,19.2
